Hearne, TX

9:07 PM CST on November 22, 2019 (GMT -0600)
Hearne

Weather History for KLHB - September, 2019

Change the Weather History Date:

Tuesday, September 10, 2019

  Actual Average (WUND) Record (WUND)
Temperature  
Mean Temperature 84 °F -  
Max Temperature 97 °F - - (-1)
Min Temperature 72 °F - - (-1)
Cooling Degree Days 20    
Growing Degree Days 34 (Base 50)    
Moisture  
Dew Point 72 °F    
Average Humidity 77    
Maximum Humidity 95    
Minimum Humidity 37    
Precipitation  
Precipitation 0.22 in - - ()
Sea Level Pressure  
Sea Level Pressure 30.06 in    
Wind  
Wind Speed 2 mph ()    
Max Wind Speed 9 mph    
Max Gust Speed 18 mph    
Visibility 9.3 miles    
Events Rain , Thunderstorm    
Averages and records for this station are not official NWS values.
T = Trace of Precipitation, MM = Missing Value Source: Averaged Metar Reports

Daily Weather History Graph

Daily Weather History Graph

Search for Another Location

Airport or City:

Astronomy

Sep. 10, 2019 Rise Set
Actual Time 7:07 AM CDT 7:38 PM CDT
Civil Twilight 6:43 AM CDT 8:02 PM CDT
Nautical Twilight 6:14 AM CDT 8:31 PM CDT
Astronomical Twilight 5:45 AM CDT 9:00 PM CDT
Moon 6:00 PM CDT (9/10) 3:52 AM CDT (9/10)
Length of Visible Light 13h 19m
Length of Day
12h 30m
Waxing Gibbous, 89% of the Moon is Illuminated
Sep 10
Waxing Gibbous
Sep 13
Full
Sep 21
Last Quarter
Sep 28
New
Oct 5
First Quarter

Hourly Weather History & Observations

Time (CDT) Temp. Heat Index Dew Point Humidity Pressure Visibility Wind Dir Wind Speed Gust Speed Precip Events Conditions
12:15 AM 75.6 °F - 71.1 °F 86% 30.05 in 10.0 mi Calm Calm - N/A   Clear
12:35 AM 75.4 °F - 70.9 °F 86% 30.05 in 10.0 mi Calm Calm - N/A   Clear
12:55 AM 75.2 °F - 70.9 °F 86% 30.05 in 10.0 mi East 3.5 mph - N/A   Clear
1:15 AM 75.2 °F - 70.9 °F 86% 30.05 in 10.0 mi Calm Calm - N/A   Clear
1:35 AM 75.2 °F - 70.9 °F 86% 30.05 in 10.0 mi Calm Calm - N/A   Clear
1:55 AM 74.7 °F - 70.9 °F 88% 30.05 in 10.0 mi Calm Calm - N/A   Clear
2:15 AM 74.3 °F - 70.9 °F 89% 30.05 in 10.0 mi Calm Calm - N/A   Clear
2:35 AM 74.3 °F - 70.9 °F 89% 30.05 in 10.0 mi Calm Calm - N/A   Clear
2:55 AM 74.3 °F - 70.7 °F 88% 30.04 in 10.0 mi Calm Calm - N/A   Clear
3:15 AM 73.9 °F - 70.9 °F 90% 30.04 in 10.0 mi Calm Calm - N/A   Clear
3:35 AM 74.1 °F - 71.1 °F 90% 30.03 in 10.0 mi Calm Calm - N/A   Clear
3:55 AM 73.6 °F - 71.2 °F 92% 30.03 in 10.0 mi Calm Calm - N/A   Clear
4:15 AM 73.8 °F - 71.1 °F 91% 30.03 in 10.0 mi Calm Calm - N/A   Clear
4:35 AM 73.6 °F - 71.2 °F 92% 30.03 in 10.0 mi Calm Calm - N/A   Clear
4:55 AM 73.8 °F - 71.6 °F 93% 30.04 in 10.0 mi Calm Calm - N/A   Clear
5:15 AM 73.6 °F - 71.6 °F 93% 30.04 in 10.0 mi Calm Calm - N/A   Clear
5:35 AM 73.4 °F - 71.6 °F 94% 30.05 in 7.0 mi Calm Calm - N/A   Clear
5:55 AM 73.8 °F - 72.3 °F 95% 30.05 in 5.0 mi Calm Calm - N/A   Clear
6:15 AM 73.0 °F - 71.4 °F 95% 30.06 in 5.0 mi Calm Calm - N/A   Clear
6:35 AM 72.9 °F - 71.4 °F 95% 30.07 in 5.0 mi Calm Calm - N/A   Scattered Clouds
6:55 AM 73.0 °F - 71.6 °F 95% 30.07 in 5.0 mi Calm Calm - N/A   Scattered Clouds
7:15 AM 73.0 °F - 71.6 °F 95% 30.08 in 3.0 mi Calm Calm - N/A   Clear
7:35 AM 73.0 °F - 71.6 °F 95% 30.08 in 4.0 mi Calm Calm - N/A   Clear
7:55 AM 73.9 °F - 72.5 °F 95% 30.09 in 4.0 mi Calm Calm - N/A   Scattered Clouds
8:15 AM 75.2 °F - 73.4 °F 94% 30.10 in 4.0 mi Calm Calm - N/A   Clear
9:55 AM 83.1 °F 91.9 °F 76.6 °F 81% 30.10 in - SE 8.1 mph - N/A   Unknown
10:15 AM 85.3 °F 95.4 °F 76.5 °F 75% 30.10 in 10.0 mi SE 5.8 mph - N/A   Scattered Clouds
10:35 AM 86.9 °F 97.3 °F 75.9 °F 70% 30.11 in 10.0 mi SSE 6.9 mph - N/A   Scattered Clouds
10:55 AM 87.8 °F 96.6 °F 74.5 °F 64% 30.10 in 10.0 mi ESE 9.2 mph - N/A   Mostly Cloudy
11:15 AM 89.2 °F 97.4 °F 73.2 °F 59% 30.11 in 10.0 mi SE 8.1 mph - N/A   Scattered Clouds
11:35 AM 88.5 °F 95.8 °F 72.7 °F 59% 30.10 in 10.0 mi SE 5.8 mph - N/A   Scattered Clouds
11:55 AM 90.5 °F 98.1 °F 72.1 °F 55% 30.10 in 10.0 mi SE 6.9 mph - N/A   Scattered Clouds
12:15 PM 91.2 °F 99.1 °F 72.3 °F 54% 30.09 in 10.0 mi SE 5.8 mph - N/A   Clear
12:35 PM 91.8 °F 100.3 °F 73.2 °F 54% 30.09 in 10.0 mi SE 9.2 mph - N/A   Clear
12:55 PM 91.0 °F 96.6 °F 70.0 °F 50% 30.08 in 10.0 mi SE 9.2 mph - N/A   Clear
1:15 PM 92.7 °F 97.7 °F 69.1 °F 46% 30.08 in 10.0 mi SE 6.9 mph - N/A   Clear
1:35 PM 93.2 °F 97.7 °F 68.4 °F 44% 30.08 in 10.0 mi SSE 5.8 mph - N/A   Clear
1:55 PM 94.3 °F 99.3 °F 68.5 °F 43% 30.07 in 10.0 mi SE 4.6 mph - N/A   Clear
2:15 PM 92.3 °F 97.0 °F 69.1 °F 46% 30.06 in 10.0 mi SSE 5.8 mph - N/A   Scattered Clouds
2:35 PM 92.5 °F 98.4 °F 70.0 °F 48% 30.05 in 10.0 mi SSE 4.6 mph - N/A   Scattered Clouds
2:55 PM 95.0 °F 100.7 °F 69.1 °F 43% 30.03 in 10.0 mi ESE 6.9 mph - N/A   Scattered Clouds
3:15 PM 96.1 °F 99.9 °F 66.9 °F 38% 30.03 in 10.0 mi SE 9.2 mph - N/A   Scattered Clouds
3:35 PM 96.6 °F 101.5 °F 68.2 °F 39% 30.02 in 10.0 mi SSE 9.2 mph - N/A   Clear
3:55 PM 96.6 °F 101.5 °F 67.6 °F 39% 30.02 in 10.0 mi East 5.8 mph - N/A   Scattered Clouds
4:15 PM 97.5 °F 102.0 °F 67.1 °F 37% 30.01 in 10.0 mi SE 9.2 mph - N/A   Scattered Clouds
4:35 PM 93.6 °F 99.0 °F 69.3 °F 45% 30.01 in 10.0 mi ESE 9.2 mph - N/A   Mostly Cloudy
4:55 PM 82.4 °F 87.4 °F 72.3 °F 71% 30.03 in 10.0 mi East 6.9 mph 18.4 mph 0.17 in Thunderstorm Overcast
5:15 PM 77.4 °F - 71.4 °F 82% 30.05 in 10.0 mi ESE 9.2 mph - 0.05 in Rain , Thunderstorm Light Thunderstorms and Rain
5:35 PM 76.6 °F - 71.6 °F 84% 30.06 in 10.0 mi East 4.6 mph - 0.05 in Rain , Thunderstorm Light Thunderstorms and Rain
5:55 PM 76.6 °F - 71.6 °F 84% 30.07 in 10.0 mi NNE 6.9 mph - 0.05 in Thunderstorm Clear
6:15 PM 76.6 °F - 72.0 °F 85% 30.07 in 10.0 mi ENE 3.5 mph - N/A   Clear
6:35 PM 77.4 °F - 72.3 °F 84% 30.07 in 10.0 mi Calm Calm - N/A   Scattered Clouds
6:55 PM 78.4 °F - 72.9 °F 83% 30.06 in 10.0 mi East 4.6 mph - N/A   Mostly Cloudy
7:15 PM 77.7 °F - 72.9 °F 85% 30.05 in 10.0 mi East 3.5 mph - N/A Rain Light Rain
7:35 PM 77.4 °F - 72.5 °F 85% 30.05 in 10.0 mi East 4.6 mph - N/A   Scattered Clouds
7:55 PM 77.0 °F - 72.9 °F 87% 30.06 in 10.0 mi Calm Calm - N/A   Clear
8:15 PM 77.0 °F - 73.0 °F 88% 30.07 in 10.0 mi Calm Calm - N/A   Clear
8:35 PM 77.0 °F - 72.7 °F 86% 30.09 in 10.0 mi SE 4.6 mph - N/A   Scattered Clouds
8:55 PM 77.5 °F - 72.9 °F 85% 30.09 in 10.0 mi SSE 4.6 mph - N/A   Mostly Cloudy
9:15 PM 77.7 °F - 72.9 °F 85% 30.08 in 10.0 mi East 3.5 mph - N/A   Scattered Clouds
9:35 PM 77.5 °F - 73.2 °F 86% 30.06 in 10.0 mi Calm Calm - N/A   Clear
9:55 PM 77.4 °F - 73.4 °F 88% 30.07 in 10.0 mi SE 3.5 mph - N/A   Clear
10:15 PM 77.2 °F - 73.0 °F 87% 30.08 in 10.0 mi SE 4.6 mph - N/A   Clear
10:35 PM 77.5 °F - 72.9 °F 85% 30.08 in 10.0 mi ESE 4.6 mph - N/A   Clear
10:55 PM 77.4 °F - 73.2 °F 87% 30.08 in 10.0 mi SE 5.8 mph - N/A   Clear
11:15 PM 77.4 °F - 72.7 °F 85% 30.09 in 10.0 mi SE 5.8 mph - N/A   Clear
11:35 PM 76.6 °F - 72.5 °F 87% 30.10 in 10.0 mi SSE 5.8 mph - N/A   Clear
11:55 PM 76.3 °F - 72.5 °F 88% 30.09 in 10.0 mi SE 4.6 mph - N/A   Clear